Lid_Strength_Index
13 16 19 17 15 15 15 16 18 16 13 13 14 13 12 12 11 10 10 10 9 9 8 7 6 6 5 5 4 3 3 4 2 1 2 2 2 1 1 1 1 1 1 2
16 17 15 14 14 14 16 18 18 16 13 13 13 15 13 12 12 10 10 10 9 9 9 8 7 6 6 6 5 4 3 3 3 2 1 1 1 1 1 1 1 1 2 2
18 16 14 15 16 16 17 19 20 17 14 12 15 17 16 13 12 10 9 9 9 10 10 9 9 8 7 7 7 5 4 3 3 3 3 1 1 1 1 1 1 1 1 1
17 15 15 16 16 16 18 15 15 16 16 21 16 22 21 16 13 12 12 10 11 10 10 10 10 8 8 8 7 6 5 4 3 2 2 2 3 3 2 2 1 1 1 2
18 17 17 17 16 15 17 14 15 16 17 15 20 23 21 16 16 14 13 11 11 11 11 11 10 9 7 7 8 7 5 4 4 4 3 2 2 2 2 1 2 2 2 2
16 14 16 16 15 15 14 15 16 16 17 23 22 22 22 21 17 15 13 13 12 11 11 11 10 9 9 7 7 7 7 5 5 5 4 5 4 4 5 5 5 6 5 5
18 17 15 14 17 15 15 18 25 25 25 23 19 21 19 16 14 13 13 14 13 12 12 12 11 11 10 9 9 8 8 8 6 6 6 5 6 5 5 6 6 7 6 6
21 22 16 15 17 18 17 18 23 26 25 23 18 21 18 14 13 12 14 15 13 13 12 12 12 11 11 11 10 10 9 9 8 7 7 7 6 6 7 7 7 7 7 7
20 20 16 15 15 16 17 19 17 19 23 22 21 18 16 14 15 15 15 15 15 14 13 13 12 13 13 12 11 11 11 10 9 9 8 8 8 8 8 8 7 8 7 7
17 20 17 16 15 15 17 15 20 21 27 26 22 20 19 16 15 15 16 16 15 14 14 13 13 13 13 12 12 12 11 11 11 10 10 10 10 10 10 9 9 9 9 8
16 19 19 17 17 18 17 18 17 18 19 22 24 21 16 16 14 15 16 15 14 14 14 14 13 12 12 13 13 12 12 12 12 11 11 11 11 11 11 11 11 11 10 10
16 18 22 20 18 16 17 18 17 21 22 20 20 20 15 15 14 15 16 15 14 14 14 14 13 13 13 13 13 13 13 12 12 11 11 11 11 11 12 12 12 11 11 11
16 22 27 23 19 18 18 17 16 17 18 20 22 21 15 16 16 16 16 15 14 14 14 14 14 14 13 13 13 13 13 13 12 12 11 11 11 11 11 11 11 11 11 12
14 19 21 23 20 19 19 18 17 17 21 20 19 20 17 16 16 17 16 15 15 14 14 14 14 14 14 13 13 13 12 13 13 12 12 12 11 11 11 11 11 11 11 11
16 23 21 19 18 18 18 18 18 18 17 20 20 19 17 15 16 16 16 15 15 15 14 14 14 14 14 13 13 13 13 12 12 12 12 12 11 10 10 10 10 11 11 11
17 23 22 24 20 20 21 18 18 17 16 17 17 16 15 15 16 17 15 15 15 15 14 14 14 13 13 14 13 12 13 13 12 12 12 12 11 11 11 11 11 11 11 11
18 22 26 27 24 24 23 22 19 18 18 17 19 16 15 16 15 15 15 14 14 14 14 14 13 13 13 14 13 13 13 13 13 13 13 12 12 12 12 11 11 11 11 11
21 24 28 28 28 27 18 20 19 19 18 16 16 16 15 14 14 13 14 14 14 14 14 14 13 14 14 14 13 13 13 13 13 13 13 13 12 13 12 12 12 12 12 12
18 21 29 28 32 23 19 21 21 20 19 17 16 15 16 16 16 15 14 13 13 13 13 13 13 13 14 14 13 13 14 13 13 13 12 12 12 12 13 13 13 13 13 13
19 20 23 33 30 27 19 20 19 19 22 18 17 16 17 16 18 16 15 14 14 13 13 13 13 13 14 14 13 13 14 13 13 13 13 13 12 13 13 13 13 13 13 13
21 25 27 33 30 25 19 19 18 22 18 19 18 17 16 16 15 15 15 15 13 13 13 13 13 13 14 14 13 14 13 13 13 13 13 13 13 13 13 13 13 13 13 13
21 23 24 30 30 26 19 19 20 17 18 18 18 17 16 16 15 15 15 15 14 14 14 13 13 14 14 14 14 14 13 13 14 14 15 16 17 15 14 15 15 15 13 14
22 20 22 21 21 18 17 18 17 18 18 17 17 16 15 16 16 16 16 16 15 14 13 14 13 14 14 14 14 14 14 14 16 19 20 19 18 16 16 15 15 16 15 15
21 19 21 20 17 18 18 17 18 17 17 17 16 15 15 15 15 15 16 16 15 14 14 14 14 15 15 15 15 15 15 16 20 21 21 20 19 18 18 16 15 16 16 14
20 19 21 21 18 18 17 16 15 16 17 16 16 15 14 15 15 15 16 16 14 14 15 14 14 15 15 16 17 20 18 20 21 21 21 20 20 20 19 18 17 16 14 12
20 20 19 19 16 15 15 15 15 16 16 16 16 16 15 14 15 15 16 15 15 15 16 16 16 16 17 17 18 21 21 20 19 20 20 20 20 21 20 19 18 12 11 10